STARLINK-2619 (48475 NORAD) Tracking and Keplerian Element Data

This shows tracking and keplerian element data for the satellite.

Feedback or suggestion? Click here.




ElementValue
Catalog48475
NameSTARLINK-2619
Epoch Orbit359
Epoch Day214.91667824
Epoch Year2021
RAAN172.3979
Inclination53.0539
Eccentricity0.0001716
Argument of Perigee83.8866
Mean Anonmoly34.9784
Mean Motion15.06394555
Decay Rate2.376E-05
L11 48475U 21040AZ 21214.91667824 .00002376 00000-0 17839-3 0 9997
L22 48475 53.0539 172.3979 0001716 83.8866 34.9784 15.06394555 3592

Live tracking and technical data element details for STARLINK-2619 (NORAD 48475). STARLINK-2619 can be tracked NOW for your location showing map with azimuth and elevation plus other details from your city location.

Track the satellite on the map from your city or location and see movement details for azimuth, elevation, latitude, longitude, range, height, and movement on the map or in text.







IsCatalogInMostPopularTable: catalog: 48475, numindb: 29
Update: records affected: 1



GetName: 48475 STARLINK-2619

Hit Count: updated at: Tue, 03 Aug 2021 21:43:59 GMT